Погода в Среднем Баскунчаке

Россия / Астраханская область     48°12′33″N   46°47′17″E
темп.,
°C
ветер,
м/с
пор.,
м/с
влажн.,
%
обл.,
%
осадки,
мм/ч
давл.,
гПа
погр.,
м
24 сентября, пт
пт2401:00+12ссз3580100 0.0 1011137
04:00+12с2274100 0.0 101269
07:00+12с6968100 0.0 1010288
10:00+11с5785100 2.7 1011316
13:00+12с6790100 7.0 1010278
16:00+11сз7889100 7.3 1010394
19:00+12зсз578698 0.0 1010330
22:00+11зсз5983100 0.0 1011385
25 сентября, сб
сб2501:00+11зсз59776 0.0 1011330
04:00+10з23805 0.0 101141
07:00+10зюз3582100 0.0 1011100
10:00+14юз3463100 0.0 1011352
13:00+15юз4658100 0.0 1011610
16:00+15зюз61365100 0.0 10121185
19:00+14зюз61272100 0.0 1012890
22:00+12юз510859 0.6 1012403
26 сентября, вс
вс2601:00+11юз51088100 0.0 1012301
04:00+10зюз510865 0.0 1012281
07:00+9з511855 0.0 1013294
10:00+14з696410 0.0 1013650
13:00+15з795798 0.0 10131158
16:00+17з61045100 0.0 10111938
19:00+13зюз81073100 0.1 1010719
22:00+13зюз7118774 2.3 1008691
27 сентября, пн
пн2701:00+12юз489260 0.3 1006283
04:00+11зсз914876 2.1 1006550
07:00+9зсз8128839 0.0 1008508
10:00+11зсз9117455 0.0 1009760
13:00+14зсз9116068 0.0 10101311
16:00+14сз8105489 0.1 10111517
19:00+13зсз6868100 0.0 1013647
22:00+12зсз5971100 0.0 1014492
28 сентября, вт
вт2801:00+12сз4876100 0.1 1015339
04:00+11ссз47806 0.1 1016244
07:00+9с489110 0.0 1018241
10:00+11св666738 0.0 1021704
13:00+12св5564100 0.0 10221108
16:00+12ссв555657 0.0 10231159
19:00+11ссв345774 0.0 102496
22:00+10ссв355940 0.0 1025123